Location: Dambovana
(46.2000°N, 22.6667°E)
Time: 04:33:56
(UTC+00:00)

Daily predictions for brighter satellites

Satellite Brightness Start Highest point End
(mag) Time Altitude Azimuth Time Altitude Azimuth Time Altitude Azimuth
Cosmos 2344 4.4 01:20:25 52° NE 01:20:25 52° NE 01:30:06 10° ESE
USA 238 DEB 4.3 02:09:02 46° NE 02:09:02 46° NE 02:13:40 10° NE
USA 238 4.3 02:09:08 46° NE 02:09:08 46° NE 02:13:48 10° NE
Cosmos 2227 Rocket 3.4 02:22:55 34° NNE 02:24:24 39° NE 02:29:41 10° ESE
CENTAUR R/B 4.5 02:30:28 19° NNW 02:32:23 21° N 02:38:18 10° NE
Meteor 2-15 Rocket 4.5 02:37:13 74° ESE 02:37:19 74° E 02:43:27 10° NNE
ADEOS II 4.5 02:44:02 10° N 02:44:14 11° N 02:44:14 11° N
Cosmos 2239 Rocket 4.4 02:49:25 55° S 02:50:56 83° E 02:57:13 10° N
Cosmos 1980 Rocket 3.8 02:49:26 10° SSE 02:54:19 32° ESE 02:59:14 10° NE
CZ-2C R/B 3.2 02:52:58 10° NNE 02:55:56 40° NNE 02:55:56 40° NNE
Aureole 3 4.0 02:52:07 10° N 02:57:43 72° ENE 03:02:17 10° SSE
USA 215 3.9 02:52:18 10° E 02:58:36 51° NNE 03:01:27 31° NNW
PAYLOAD A 4.1 02:54:01 10° NNE 02:59:19 81° ESE 02:59:58 69° S
Cosmos 1697 Rocket 2.6 03:04:14 64° SSW 03:05:08 84° ESE 03:10:50 10° NNE
Cosmos 1000 Rocket 4.3 03:02:42 10° NNW 03:09:01 76° W 03:15:19 10° S
Cosmos 2297 Rocket 3.9 03:13:04 18° S 03:13:04 18° S 03:14:34 10° S
Cosmos 1939 Rocket 4.3 03:06:08 10° NNE 03:08:10 30° NNE 03:08:10 30° NNE
ARGOS 4.2 03:12:49 10° N 03:15:54 30° NNW 03:15:54 30° NNW
Cosmos 2123 Rocket 3.9 03:13:37 10° N 03:19:53 87° W 03:26:05 10° S
Meteor 1-21 Rocket 4.2 03:14:30 10° NNW 03:20:14 61° W 03:25:49 10° S
NOSS 2-1 (C) 4.0 03:22:13 41° NE 03:22:13 41° NE 03:24:18 10° NE
Cosmos 2219 4.3 03:17:44 10° NNW 03:23:12 43° NE 03:28:34 10° SE
Cosmos 2292 Rocket 4.0 03:18:48 10° NNW 03:23:45 75° W 03:30:03 10° S
NOSS 2-1 (E) 3.3 03:26:33 61° ENE 03:26:33 61° ENE 03:29:17 10° NE
Exosat Rocket 3.4 03:28:05 10° NNW 03:33:51 79° WSW 03:38:48 10° SSE
Cosmos 2344 4.2 03:30:27 29° WNW 03:34:48 49° WSW 03:45:30 10° S
Cosmos 2263 Rocket 2.2 03:32:58 10° NNW 03:38:42 83° ENE 03:44:20 10° SSE
SKYMED 2 3.5 03:35:51 10° SSE 03:40:12 87° ENE 03:44:34 10° NNW
IRS-1D 3.7 03:39:18 10° NNE 03:44:31 73° ESE 03:49:36 10° S
SOZ 4.5 03:45:29 63° W 03:45:51 72° SSW 03:51:40 10° SE
Cosmos 1934 Rocket 3.9 03:45:14 10° SSW 03:51:14 59° WNW 03:57:23 10° N
COSMOS 2455 2.8 03:47:02 19° SW 03:51:32 75° NW 03:57:36 10° NNE
Cosmos 2082 4.3 03:47:05 10° NNW 03:52:44 57° ENE 03:58:18 10° SE
Intercosmos 25 Rocket 2.7 03:50:04 10° NNW 03:53:26 70° W 03:56:36 10° S
BREEZE-M R/B 2.6 03:53:40 41° N 03:53:40 41° N 03:55:52 10° ENE
Cosmos 1503 Rocket 4.0 03:48:28 10° SSW 03:53:38 86° ESE 03:58:53 10° NNE
USA 59 Rocket 0.3 03:55:02 31° NNW 03:55:02 31° NNW 03:57:13 10° NNE
NOAA 12 4.0 03:49:53 10° NNE 03:55:11 84° WNW 04:00:28 10° SSW
Cosmos 1908 Rocket 3.6 03:50:56 10° S 03:55:17 78° E 03:59:41 10° NNE
SL-4 R/B 1.6 03:56:28 49° W 03:57:19 73° SSW 04:01:03 10° SE
Cosmos 1733 Rocket 3.9 03:59:04 29° NW 03:59:04 29° NW 04:02:13 10° N
Cosmos 2221 Rocket 3.5 04:02:03 10° NNW 04:06:35 74° W 04:11:05 10° S
H-2A R/B 3.7 04:03:21 10° N 04:06:54 38° WNW 04:08:22 27° WSW
BREEZE-M R/B 4.2 04:02:55 22° WSW 04:06:55 81° NNW 04:13:58 10° ENE
Cosmos 2227 Rocket 2.7 04:04:47 18° NW 04:08:22 36° WSW 04:13:29 10° S
Cosmos 1378 Rocket 4.3 04:10:28 27° W 04:10:50 27° W 04:14:28 10° SSW
Cosmos 1605 Rocket 4.0 04:04:28 10° SSW 04:10:51 73° W 04:17:15 10° N
Cosmos 1777 Rocket 4.1 04:12:53 10° SW 04:17:54 50° WNW 04:22:58 10° NNE
IGS 5A 3.6 04:15:19 10° NNE 04:19:18 73° ESE 04:23:15 10° S
Cosmos 1486 Rocket 4.4 04:15:04 10° SW 04:19:57 41° WNW 04:24:58 10° N
Cosmos 1025 Rocket 3.5 04:18:37 10° NNW 04:22:38 37° W 04:26:38 10° SSW
Cosmos 783 Rocket 4.5 04:18:05 10° NNW 04:23:14 62° WSW 04:28:19 10° S
GP-B 3.1 04:20:25 10° N 04:24:49 88° E 04:29:11 10° S
Cosmos 1484 Rocket 3.2 04:22:10 10° NNE 04:25:37 58° E 04:29:04 10° S
NOSS 3-1 (C) 3.0 04:27:01 10° SW 04:31:38 59° NW 04:37:15 10° NE
USA-17 4.5 04:32:22 16° NW 04:34:42 50° SW 04:38:02 10° SSE
CZ-2C R/B 4.1 04:33:04 10° NNW 04:35:03 13° WNW 04:35:10 13° WNW
ISS -2.2 04:34:02 10° SSW 04:37:07 34° SE 04:40:11 10° ENE
NOSS 3-1 (A) 3.3 04:33:24 10° SSW 04:37:56 67° SE 04:43:24 10° NE
Cosmos 1980 Rocket 2.5 04:32:50 10° SW 04:38:09 43° NW 04:43:28 10° NNE
Cosmos 1400 Rocket 2.8 04:36:57 10° SSW 04:40:39 53° WNW 04:44:23 10° N
USA 215 3.3 04:34:56 10° SE 04:41:28 69° SW 04:48:03 10° NW
Cosmos 1300 Rocket 3.6 04:38:58 10° SSW 04:43:16 56° WNW 04:47:38 10° N
Cosmos 1812 2.2 04:43:14 10° SW 04:45:25 30° WNW 04:47:37 10° NNW
USA 276 0.6 04:46:14 29° NNW 04:46:18 30° NNW 04:47:21 10° NE
COSMO-SKYMED 1 3.2 04:43:45 10° SSW 04:47:22 30° W 04:51:01 10° NNW
Cosmos 1354 Rocket 4.2 04:42:32 10° SW 04:47:35 49° WNW 04:52:41 10° NNE
Cosmos 1844 Rocket 3.2 04:42:38 10° NNW 04:48:16 63° ENE 04:53:50 10° SE
Lacrosse 4 Rocket 4.0 04:47:09 10° NNE 04:48:44 12° NE 04:50:21 10° ENE
Cosmos 1697 Rocket 4.0 04:46:00 11° W 04:49:50 20° NW 04:53:59 10° N
CZ-4 R/B 4.5 04:46:28 10° N 04:51:00 36° WNW 04:55:31 10° SW
Cosmos 372 Rocket 4.2 04:46:23 10° SSW 04:51:26 77° ESE 04:56:34 10° NNE
Meteor 2-17 Rocket 4.4 04:45:52 10° NNW 04:51:56 77° W 04:58:00 10° S
Cosmos 2237 4.2 04:47:49 10° SSW 04:53:31 76° WNW 04:59:14 10° NNE
Cosmos 1898 Rocket 4.1 04:49:08 10° S 04:54:21 64° ESE 04:59:37 10° NNE
SMAP 3.2 04:53:19 10° NNE 04:58:01 82° ESE 05:02:39 10° SSW
Cosmos 1602 3.4 04:56:51 10° NNW 04:59:28 37° W 05:02:04 10° SSW
BREEZE-M DEB (TANK) 4.2 04:55:07 10° SW 05:06:35 69° SSE 05:10:03 10° ENE
Cosmos 2219 3.9 05:02:06 10° NW 05:07:11 34° WSW 05:12:12 10° SSW
